Tracking 19817 objects as of 19-Aug-2019
HD Live streaming from Space Station
objects crossing your sky now

TIROS 9

Track TIROS 9 now!
10-day predictions
TIROS 9 is classified as:


NORAD ID: 978
Int'l Code: 1965-004A
Perigee: 710.6 km
Apogee: 2,568.7 km
Inclination: 96.4 °
Period: 118.9 minutes
Semi major axis: 8010 km
RCS: 0.8367 m2 (medium)
Launch date: January 22, 1965
Source: United States (US)
Launch site: AIR FORCE EASTERN TEST RANGE (AFETR)
aabbcc
Your satellite tracking list
Your tracking list is empty




NASA's NSSDC Master Catalog

Two Line Element Set (TLE):
1   978U 65004A   19229.20543090  .00000016  00000-0  34277-4 0  9999
2   978  96.4059 116.3507 1159774  30.5064 335.8546 12.10883642409916
Source of the keplerian elements: AFSPC